Regional Weather Roundup
Issued by NWS

Home | Current Version | Previous Version | Text Only | Print | Product List | Glossary On
Versions: 1 2 3 4 5 6 7 8 9 10 11 12 13 14 15 16 17 18 19 20 21 22 23 24 25 26 27 28 29 30 31 32 33 34 35 36 37 38 39 40 41 42 43 44 45 46 47 48 49 50
000
ASUS43 KLSX 281607
RWRMO

WEATHER SUMMARY FOR MISSOURI
NATIONAL WEATHER SERVICE SPRINGFIELD MO
1100 AM CDT TUE JUL 28 2015

NOTE: "FAIR" INDICATES FEW OR NO CLOUDS BELOW 12,000 FEET WITH NO
       SIGNIFICANT WEATHER AND/OR OBSTRUCTIONS TO VISIBILITY.
       CURRENT SKY AND/OR WEATHER CONDITIONS ARE NOT AVAILABLE FOR
       CHILLICOTHE AND FARMINGTON.

MOZ001>031-035>038-043-044-053-054-281700-
...NORTHERN AND WESTERN MISSOURI...

CITY           SKY/WX    TMP DP  RH WIND       PRES   REMARKS
KANSAS CTY INT MOSUNNY   88  75  65 SW14      29.92R HX  97
KANSAS C DTWN  SUNNY     92  73  53 SW13      29.90R HX 100
LEE`S SUMMIT   SUNNY     89  72  56 SW16G22   29.93S HX  96
ST JOSEPH      SUNNY     87  76  69 S12       29.89R HX  97
CHILLICOTHE      N/A     90  77  65 S8        29.93S HX 103
KIRKSVILLE     SUNNY     88  77  69 SW8       29.96S HX 100

$$
MOZ066>068-077>081-088>096-101>105-281700-
...SOUTHWEST MISSOURI...

CITY           SKY/WX    TMP DP  RH WIND       PRES   REMARKS
SPRINGFIELD    SUNNY     89  72  56 SW12      30.01S HX  96
JOPLIN         SUNNY     90  73  57 S13       29.98S HX  98

$$
MOZ032>034-039>042-045>050-055>058-069>072-281700-
...CENTRAL MISSOURI...

CITY           SKY/WX    TMP DP  RH WIND       PRES   REMARKS
COLUMBIA       SUNNY     88  77  69 W9        29.97R HX 100
JEFFERSON CITY SUNNY     90  75  61 SW7       29.95S HX 100
ROLLA          SUNNY     87  77  72 W8        29.99S HX  99
SEDALIA        SUNNY     91  75  59 SW8       29.97R HX 101
WHITEMAN AFB   SUNNY     91  74  56 SW15      29.94R HX 100
WARRENSBURG    SUNNY     88  72  58 S10G18    29.93S HX  94
OSAGE BEACH    SUNNY     90  73  58 SW9       29.99R HX  98

$$
MOZ051-052-059>065-281700-
...EAST CENTRAL MISSOURI...

CITY           SKY/WX    TMP DP  RH WIND       PRES   REMARKS
ST LOUIS INTL  PTSUNNY   92  76  59 S5        29.98R HX 104
SPIRIT OF STL  MOSUNNY   90  79  70 W6        29.96R HX 106
ST CHARLES     SUNNY     86  79  79 CALM      29.96R HX  99

$$
MOZ072>076-082>087-097>100-106>115-281700-
...SOUTH CENTRAL AND SOUTHEAST MISSOURI...

CITY           SKY/WX    TMP DP  RH WIND       PRES   REMARKS
CAPE GIRARDEAU SUNNY     89  78  70 SW7       29.98R HX 103
FARMINGTON     MOSUNNY   90  75  62 W7        30.04R HX 100
POPLAR BLUFF   SUNNY     89  80  74 SW6       29.97S HX 106
WEST PLAINS    SUNNY     88  73  61 SW7       30.05R HX  95

$$



USA.gov is the U.S. government's official web portal to all federal, state and local government web resources and services.